Regional Weather Roundup
Issued by NWS

Home | Current Version | Previous Version | Text Only | Print | Product List | Glossary On
Versions: 1 2 3 4 5 6 7 8 9 10 11 12 13 14 15 16 17 18 19 20 21 22 23 24 25 26 27 28
000
ASUS44 KLIX 211213
RWRLA
LOUISIANA WEATHER ROUNDUP
NATIONAL WEATHER SERVICE NEW ORLEANS LA
700 AM CDT SAT OCT 21 2017

NOTE: "FAIR" INDICATES FEW OR NO CLOUDS BELOW 12,000 FEET WITH NO
      SIGNIFICANT WEATHER AND/OR OBSTRUCTIONS TO VISIBILITY.
      SKY/WX - SKY CONDITION AND SIGNIFICANT WEATHER.
      TMP - AIR TEMPERATURE.    DP   - DEWPOINT TEMPERATURE.
      RH  - RELATIVE HUMIDITY.  PRES - PRESSURE.
      HX  - HEAT INDEX.         WCI  - WIND CHILL INDEX.

*  THESE STATIONS ARE NOT NWS OR FAA STATIONS AND ARE NOT UNDER
   NWS QUALITY CONTROL.

LAZ040-048-061>063-065-066-069-211300-
SOUTHEAST LOUISIANA

CITY           SKY/WX    TMP DP  RH WIND       PRES   REMARKS
N.O. INTL ARPT CLOUDY    74  71  91 E8        30.04R
6HR MIN TEMP:  74; 6HR MAX TEMP:  76;

N.O. LAKEFRONT PTCLDY    76  71  85 E9        30.04R
6HR MIN TEMP:  75; 6HR MAX TEMP:  76;

N.O. DOWNTOWN* FAIR      77  69  76 VRB6      30.05R
6HR MIN TEMP:  76; 6HR MAX TEMP:  77;

RESERVE*       FAIR      75  68  78 E5        30.04R
6HR MIN TEMP:  75; 6HR MAX TEMP:  77;

SLIDELL        CLOUDY    70  67  90 NE3       30.05R
6HR MIN TEMP:  67; 6HR MAX TEMP:  71;

BATON ROUGE    CLOUDY    70  68  93 E6        30.04R
6HR MIN TEMP:  69; 6HR MAX TEMP:  71;

BOOTHVILLE     CLOUDY    81  73  76 E6        30.04R
6HR MIN TEMP:  81; 6HR MAX TEMP:  81;

BELLE CHASSE   NOT AVBL
BOGALUSA*      FAIR      65  62  90 CALM      30.08S
6HR MIN TEMP:  65; 6HR MAX TEMP:  67;

GALLIANO*      PTSUNNY   76  71  83 E3        30.03R
6HR MIN TEMP:  76; 6HR MAX TEMP:  78;

NEW ROADS*     PTSUNNY   70  68  95 CALM      30.05R
6HR MIN TEMP:  69; 6HR MAX TEMP:  71;

GONZALES*      FAIR      72  69  90 CALM      30.03R
6HR MIN TEMP:  72; 6HR MAX TEMP:  74;

HAMMOND*       CLOUDY    70  64  83 E3        30.05R
HOUMA*         MOCLDY    73  72  94 CALM      30.02S
PORT FOURCHON* PTSUNNY   81  73  78 SE12      30.03R

$$

LAZ041-044-053-054-211300-
SOUTHWEST LOUISIANA

CITY           SKY/WX    TMP DP  RH WIND       PRES   REMARKS
LAKE CHARLES   CLEAR     72  71  97 SE6       29.96F
6HR MIN TEMP:  71; 6HR MAX TEMP:  73; 6HR PCP: TRACE;

LAFAYETTE      CLOUDY    74  73  97 CALM      30.01R
6HR MIN TEMP:  72; 6HR MAX TEMP:  74;

PATTERSON      MOCLDY    73  71  93 E5        30.02R
6HR MIN TEMP:  73; 6HR MAX TEMP:  74;

SALT POINT       N/A     75  72  90 VRB5      29.99R
6HR MIN TEMP:  74; 6HR MAX TEMP:  75;

NEW IBERIA     LGT RAIN  73  70  90 E6        30.02R
6HR MIN TEMP:  72; 6HR MAX TEMP:  74; 6HR PCP: TRACE;

CHENAULT AIRPK PTCLDY    72  70  94 E5        29.97S

$$

LAZ027-028-211300-
CENTRAL LOUISIANA

CITY           SKY/WX    TMP DP  RH WIND       PRES   REMARKS
FORT POLK      CLOUDY    73  71  93 SE9       30.00R
6HR MIN TEMP:  69; 6HR MAX TEMP:  73;

ALEXANDRIA INT CLOUDY    72  70  93 SE10      29.99R
6HR MIN TEMP:  69; 6HR MAX TEMP:  72;

ALEXANDRIA     CLOUDY    69  69 100 E6        30.01S
6HR MIN TEMP:  64; 6HR MAX TEMP:  70;


$$

LAZ001-002-211300-
NORTHWEST LOUISIANA

CITY           SKY/WX    TMP DP  RH WIND       PRES   REMARKS
SHREVEPORT     CLOUDY    71  70  96 SE6       30.00R
6HR MIN TEMP:  65; 6HR MAX TEMP:  71;

BARKSDALE AFB  CLOUDY    70  69  97 SE6       30.00R
6HR MIN TEMP:  63; 6HR MAX TEMP:  71;

DTN SHREVEPORT LGT RAIN  72  69  90 SE8       30.01R
6HR MIN TEMP:  67; 6HR MAX TEMP:  72; 6HR PCP: TRACE;


$$

LAZ014-016-211300-
NORTHEAST LOUISIANA

CITY           SKY/WX    TMP DP  RH WIND       PRES   REMARKS
MONROE         CLOUDY    69  66  90 SE5       30.04R
6HR MIN TEMP:  67; 6HR MAX TEMP:  69;

TALLULAH       CLOUDY    64  63  96 SE3       30.06S
6HR MIN TEMP:  63; 6HR MAX TEMP:  70;


$$





USA.gov is the U.S. government's official web portal to all federal, state and local government web resources and services.